DW1138 St. Jean de la Haize FR current weather conditions

sailwx.info

Wind from 293 at 4 knots gusting 8

Air temperature 17.8° C
Dewpoint 10.9° C

Last reported at 2019-Jun-20 17:00 UTC.
Time now 2019-Jun-20 18:01 UTC

Location: N 48°42' W 001°22'.
View on Google Maps.

See reports from other nearby stations

  
Tides and Currents Weather Stations Pressure Air Temp Water Temp Dewpoint Dewpoint Depression Visibility Wind Speed Wind Dir Waves Ship Positions
date/time (UTC)wind fromknots sea level pressurealtimeterstation pressurevisibilityair tempwater tempwave heightnotes
2019-Jun-20 17:00 293 4 gusting 8 17.8
2019-Jun-20 16:47 292 5 gusting 8 17.8
2019-Jun-20 16:33 240 5 gusting 10 17.8
2019-Jun-20 16:17 323 3 gusting 10 17.8
2019-Jun-20 16:01 290 4 gusting 8 17.2
2019-Jun-20 15:47 319 2 gusting 7 16.7
2019-Jun-20 15:31 290 3 gusting 8 16.7
2019-Jun-20 15:17 311 4 gusting 9 17.2
2019-Jun-20 15:01 295 5 gusting 11 17.8
2019-Jun-20 14:46 295 6 gusting 10 17.8
2019-Jun-20 14:31 294 6 gusting 10 17.8
2019-Jun-20 14:16 351 4 gusting 8 18.3
2019-Jun-20 14:01 294 4 gusting 10 18.3
2019-Jun-20 13:46 289 3 gusting 10 17.8
2019-Jun-20 13:31 293 6 gusting 10 17.2
2019-Jun-20 13:16 252 3 gusting 7 17.8
2019-Jun-20 13:00 294 3 gusting 8 17.8
2019-Jun-20 12:45 285 2 gusting 7 17.8
2019-Jun-20 12:31 259 4 gusting 8 17.2
2019-Jun-20 12:15 313 3 gusting 7 17.8
2019-Jun-20 12:00 311 3 gusting 9 17.8
2019-Jun-20 11:45 271 4 gusting 10 17.2
2019-Jun-20 11:31 280 4 gusting 8 17.2
2019-Jun-20 11:15 313 6 gusting 12 17.2
2019-Jun-20 11:00 265 4 gusting 10 17.2
2019-Jun-20 10:46 263 4 gusting 11 16.7
2019-Jun-20 10:31 278 4 gusting 13 16.1
2019-Jun-20 10:15 275 6 gusting 11 16.7
2019-Jun-20 10:01 240 6 gusting 11 16.7
2019-Jun-20 09:46 304 6 gusting 12 16.1
2019-Jun-20 09:30 278 4 gusting 12 16.7
2019-Jun-20 09:15 295 6 gusting 10 16.1
2019-Jun-20 09:00 290 6 gusting 12 15.6
2019-Jun-20 08:45 284 7 gusting 13 15.6
2019-Jun-20 08:30 281 5 gusting 11 15.6
2019-Jun-20 08:15 293 7 gusting 11 15.6
2019-Jun-20 08:00 292 6 gusting 13 15.6
2019-Jun-20 07:46 298 6 gusting 11 15.0
2019-Jun-20 07:33 257 6 gusting 11 15.0
2019-Jun-20 07:17 294 3 gusting 10 14.4
2019-Jun-20 07:01 278 0 gusting 6 14.4
2019-Jun-20 06:46 277 1 gusting 7 14.4
2019-Jun-20 06:31 280 14.4
2019-Jun-20 06:17 292 0 gusting 6 13.9
2019-Jun-20 06:01 298 0 gusting 6 13.9
2019-Jun-20 05:46 288 4 gusting 7 13.3
2019-Jun-20 05:31 290 2 gusting 5 13.3
2019-Jun-20 05:16 275 0 gusting 3 12.8
2019-Jun-20 05:01 269 1 gusting 2 12.8
2019-Jun-20 04:45 292 1 gusting 4 12.8
2019-Jun-20 04:31 263 2 gusting 5 12.8
2019-Jun-20 04:16 275 2 gusting 6 12.8
2019-Jun-20 04:00 292 3 gusting 5 13.3
2019-Jun-20 03:45 291 3 gusting 6 13.3
2019-Jun-20 03:30 271 2 gusting 5 13.3
2019-Jun-20 03:15 269 1 gusting 5 13.3
2019-Jun-20 03:01 296 1 gusting 4 13.9
2019-Jun-20 02:45 262 1 gusting 5 13.9
2019-Jun-20 02:30 288 1 gusting 4 13.9
2019-Jun-20 02:16 307 3 gusting 5 13.9
2019-Jun-20 02:00 268 1 gusting 4 13.9
2019-Jun-20 01:45 288 2 gusting 4 13.9
2019-Jun-20 01:30 275 3 gusting 6 13.9
2019-Jun-20 01:15 295 2 gusting 6 13.9
2019-Jun-20 01:00 274 3 gusting 6 13.9
2019-Jun-20 00:45 290 2 gusting 6 13.9
2019-Jun-20 00:30 292 3 gusting 6 14.4
2019-Jun-20 00:15 251 2 gusting 8 14.4
2019-Jun-20 00:00 311 6 gusting 9 14.4
2019-Jun-19 23:45 284 5 gusting 7 14.4
2019-Jun-19 23:30 268 3 gusting 6 14.4
2019-Jun-19 23:15 281 4 gusting 8 14.4
2019-Jun-19 23:02 287 3 gusting 5 13.9
2019-Jun-19 22:46 277 1 gusting 6 13.9
2019-Jun-19 22:31 293 2 gusting 6 13.9
2019-Jun-19 22:16 258 2 gusting 5 13.9
2019-Jun-19 22:01 269 1 gusting 5 13.9
2019-Jun-19 21:47 264 1 gusting 3 13.9
2019-Jun-19 21:32 281 2 gusting 5 13.9
2019-Jun-19 21:16 279 0 gusting 2 13.9
2019-Jun-19 21:01 276 0 gusting 4 14.4
2019-Jun-19 20:46 260 1 gusting 4 14.4
2019-Jun-19 20:31 295 1 gusting 3 14.4
2019-Jun-19 20:17 283 3 gusting 7 14.4
2019-Jun-19 20:01 292 2 gusting 6 14.4
2019-Jun-19 19:46 284 2 gusting 5 14.4
2019-Jun-19 19:31 285 2 gusting 6 15.0
2019-Jun-19 19:16 279 1 gusting 6 15.0
2019-Jun-19 19:00 244 3 gusting 6 15.0
2019-Jun-19 18:46 278 2 gusting 6 15.0
2019-Jun-19 18:32 271 1 gusting 6 15.0
2019-Jun-19 18:16 257 2 gusting 8 15.0
2019-Jun-19 18:01 227 4 gusting 7 15.6
2019-Jun-19 17:45 290 4 gusting 7 16.1
2019-Jun-19 17:30 317 3 gusting 8 16.1
2019-Jun-19 17:16 289 3 gusting 7 17.2
2019-Jun-19 17:00 288 1 gusting 6 17.2
2019-Jun-19 16:46 286 1 gusting 6 18.3
2019-Jun-19 16:31 252 1 gusting 7 18.9
2019-Jun-19 16:16 297 18.9
2019-Jun-19 16:01 288 0 gusting 6 18.9
2019-Jun-19 15:46 311 3 gusting 9 18.9
2019-Jun-19 15:31 293 18.3
2019-Jun-19 15:15 296 17.8
2019-Jun-19 15:01 284 3 gusting 9 17.2
2019-Jun-19 14:45 306 4 gusting 8 17.2
2019-Jun-19 14:30 244 5 gusting 9 17.2
2019-Jun-19 14:15 272 5 gusting 11 16.7
2019-Jun-19 14:00 273 1 gusting 7 16.7
2019-Jun-19 13:45 271 2 gusting 8 16.7
2019-Jun-19 13:30 279 2 gusting 6 16.7
2019-Jun-19 13:15 271 3 gusting 9 16.7
2019-Jun-19 13:00 269 4 gusting 7 17.2
2019-Jun-19 12:45 239 2 gusting 7 17.2
2019-Jun-19 12:30 250 4 gusting 10 17.2
2019-Jun-19 12:15 284 5 gusting 9 17.2
2019-Jun-19 12:00 271 3 gusting 7 17.2
2019-Jun-19 11:45 296 2 gusting 6 17.2
2019-Jun-19 11:30 246 3 gusting 6 17.2
2019-Jun-19 11:02 292 3 gusting 7 16.7
2019-Jun-19 10:48 289 2 gusting 6 16.7
2019-Jun-19 10:31 293 4 gusting 6 16.7
2019-Jun-19 10:17 265 2 gusting 7 16.7
2019-Jun-19 10:02 290 0 gusting 6 16.7
2019-Jun-19 09:46 287 1 gusting 4 16.7
2019-Jun-19 09:31 258 0 gusting 6 16.7
2019-Jun-19 09:17 242 1 gusting 6 16.7
2019-Jun-19 09:01 278 1 gusting 5 16.1
2019-Jun-19 08:46 285 0 gusting 6 16.1
2019-Jun-19 08:31 262 1 gusting 4 16.7
2019-Jun-19 08:16 254 1 gusting 4 16.7
2019-Jun-19 08:01 217 16.7
2019-Jun-19 07:46 217 16.7
2019-Jun-19 07:31 217 16.1
2019-Jun-19 07:16 217 16.1
2019-Jun-19 07:01 288 16.1
2019-Jun-19 06:46 281 16.1
2019-Jun-19 06:31 281 1 gusting 4 16.1
2019-Jun-19 06:17 153 0 gusting 5 15.6
2019-Jun-19 06:01 127 0 gusting 7 15.6
2019-Jun-19 05:46 111 2 gusting 6 15.0
2019-Jun-19 05:31 117 1 gusting 4 15.0
2019-Jun-19 05:17 286 15.0
2019-Jun-19 05:00 285 15.0
2019-Jun-19 04:45 285 14.4
2019-Jun-19 04:30 285 14.4
2019-Jun-19 04:15 285 14.4
2019-Jun-19 04:00 285 2 gusting 3 14.4
2019-Jun-19 03:46 069 13.9
2019-Jun-19 03:30 069 13.9
2019-Jun-19 03:15 069 1 gusting 3 14.4
2019-Jun-19 03:00 011 14.4
2019-Jun-19 02:46 011 14.4
2019-Jun-19 02:30 011 15.0
2019-Jun-19 02:15 011 0 gusting 1 15.0
2019-Jun-19 02:01 011 15.0
2019-Jun-19 01:45 011 0 gusting 3 15.0
2019-Jun-19 01:30 014 0 gusting 1 15.0
2019-Jun-19 01:15 014 15.0
2019-Jun-19 01:00 016 15.6
2019-Jun-19 00:45 016 1 gusting 3 15.6
2019-Jun-19 00:30 025 15.6
2019-Jun-19 00:15 025 15.6
2019-Jun-19 00:00 025 0 gusting 2 15.6
2019-Jun-18 23:45 025 16.1
2019-Jun-18 23:30 025 16.1
2019-Jun-18 23:16 025 16.1
2019-Jun-18 23:02 025 16.7
2019-Jun-18 22:46 025 1 gusting 3 16.7
2019-Jun-18 22:31 026 17.2
2019-Jun-18 22:16 026 0 gusting 4 17.2
2019-Jun-18 22:02 022 2 gusting 4 17.2
2019-Jun-18 21:47 030 17.2
2019-Jun-18 21:31 029 1 gusting 3 17.8
2019-Jun-18 21:02 030 0 gusting 3 18.3
2019-Jun-18 20:46 041 18.3
2019-Jun-18 20:31 041 18.9
2019-Jun-18 20:17 046 18.9
2019-Jun-18 20:02 046 19.4
2019-Jun-18 19:46 048 19.4
2019-Jun-18 19:31 017 20.6
2019-Jun-18 19:16 050 0 gusting 9 21.1
2019-Jun-18 19:01 040 0 gusting 6 22.2
2019-Jun-18 18:46 360 22.8
2019-Jun-18 18:31 022 23.3
2019-Jun-18 18:16 013 0 gusting 6 23.9
2019-Jun-18 18:02 339 24.4